FW0069 Weather Reports


Display with metric or nautical units.
time (UTC)temp
F
wind
direction
speed
MPH
gust
MPH
rain 1hr
in
rain 24hr
in
rain mn
in
humidity
%
barometer
mb
20260504234509 77 360 14.0 17.0 0.00 0.00 0.00 15 1007.6
20260504234009 77 360 9.0 18.0 0.00 0.00 0.00 15 1007.6
20260504233509 76 180 6.0 18.0 0.00 0.00 0.00 14 1007.5
20260504233009 77 360 7.0 13.0 0.00 0.00 0.00 14 1007.6
20260504232508 76 360 4.0 15.0 0.00 0.00 0.00 15 1007.5
20260504232008 76 360 9.0 15.0 0.00 0.00 0.00 15 1007.5
20260504231508 75 360 0.0 19.0 0.00 0.00 0.00 16 1007.5
20260504231009 76 360 7.0 19.0 0.00 0.00 0.00 16 1007.5
20260504230508 76 360 8.0 16.0 0.00 0.00 0.00 15 1007.5
20260504230038 76 360 6.0 16.0 0.00 0.00 0.00 14 1007.5
20260504225538 76 360 4.0 16.0 0.00 0.00 0.00 15 1007.7
20260504225009 77 198 5.0 20.0 0.00 0.00 0.00 15 1007.9
20260504224008 77 360 14.0 20.0 0.00 0.00 0.00 14 1008.0
20260504223508 77 360 9.0 19.0 0.00 0.00 0.00 13 1008.0
20260504223008 77 360 5.0 19.0 0.00 0.00 0.00 13 1008.2
20260504222508 78 179 11.0 22.0 0.00 0.00 0.00 12 1008.2
20260504222009 78 360 11.0 22.0 0.00 0.00 0.00 12 1008.1
20260504221509 78 360 13.0 21.0 0.00 0.00 0.00 12 1008.2
20260504220509 78 360 19.0 22.0 0.00 0.00 0.00 11 1008.3
20260504220008 78 360 8.0 16.0 0.00 0.00 0.00 10 1008.2
20260504215508 77 360 6.0 16.0 0.00 0.00 0.00 12 1008.3
20260504215008 78 360 14.0 16.0 0.00 0.00 0.00 13 1008.4
20260504214509 79 360 4.0 12.0 0.00 0.00 0.00 13 1008.8
20260504214009 78 360 7.0 15.0 0.00 0.00 0.00 14 1008.6
20260504213508 78 360 8.0 16.0 0.00 0.00 0.00 14 1009.0
20260504213008 78 127 4.0 16.0 0.00 0.00 0.00 13 1008.9
20260504212508 78 360 9.0 16.0 0.00 0.00 0.00 13 1008.9
20260504212008 77 360 5.0 19.0 0.00 0.00 0.00 14 1009.0
20260504211508 78 360 12.0 19.0 0.00 0.00 0.00 13 1009.0
20260504211008 77 360 5.0 19.0 0.00 0.00 0.00 12 1009.0
20260504210538 77 360 7.0 11.0 0.00 0.00 0.00 12 1009.1
20260504210008 77 360 7.0 13.0 0.00 0.00 0.00 13 1009.0
20260504205508 77 360 11.0 17.0 0.00 0.00 0.00 13 1009.0
20260504205008 78 360 10.0 17.0 0.00 0.00 0.00 14 1009.2
20260504204508 77 360 11.0 15.0 0.00 0.00 0.00 15 1008.9
20260504204038 77 360 5.0 18.0 0.00 0.00 0.00 14 1008.9
20260504203508 77 182 7.0 18.0 0.00 0.00 0.00 15 1009.2
20260504203008 77 360 4.0 13.0 0.00 0.00 0.00 16 1009.0
20260504202508 78 360 1.0 13.0 0.00 0.00 0.00 15 1009.4
20260504202008 77 360 4.0 13.0 0.00 0.00 0.00 16 1009.2
20260504201508 77 188 4.0 15.0 0.00 0.00 0.00 16 1009.1
20260504201038 76 360 3.0 15.0 0.00 0.00 0.00 17 1009.3
20260504200508 76 360 7.0 11.0 0.00 0.00 0.00 17 1009.3
20260504200008 76 360 4.0 17.0 0.00 0.00 0.00 16 1009.4
20260504195508 76 360 3.0 17.0 0.00 0.00 0.00 15 1009.4
20260504195008 75 360 10.0 15.0 0.00 0.00 0.00 17 1009.3
20260504194538 76 360 12.0 16.0 0.00 0.00 0.00 15 1009.6
20260504194008 75 150 11.0 16.0 0.00 0.00 0.00 18 1009.4
20260504193508 74 360 6.0 22.0 0.00 0.00 0.00 20 1009.4
20260504193008 75 132 2.0 22.0 0.00 0.00 0.00 19 1009.6
20260504192508 75 360 13.0 18.0 0.00 0.00 0.00 18 1009.6
20260504192008 75 360 5.0 12.0 0.00 0.00 0.00 21 1009.7
20260504191508 75 360 9.0 13.0 0.00 0.00 0.00 21 1009.7
20260504191008 75 111 5.0 18.0 0.00 0.00 0.00 21 1009.6
20260504190508 74 360 7.0 18.0 0.00 0.00 0.00 22 1009.8
20260504190008 74 134 8.0 16.0 0.00 0.00 0.00 20 1009.7
20260504185508 73 360 12.0 16.0 0.00 0.00 0.00 20 1010.0
20260504184038 72 117 5.0 14.0 0.00 0.00 0.00 24 1010.1
20260504183508 72 360 5.0 16.0 0.00 0.00 0.00 24 1010.0
20260504183008 73 360 3.0 16.0 0.00 0.00 0.00 25 1010.1
20260504182508 71 360 4.0 16.0 0.00 0.00 0.00 26 1010.1
20260504182009 72 360 11.0 17.0 0.00 0.00 0.00 26 1010.1
20260504181508 72 360 5.0 17.0 0.00 0.00 0.00 24 1010.2
20260504180538 72 167 6.0 13.0 0.00 0.00 0.00 25 1010.2
20260504180008 72 360 4.0 13.0 0.00 0.00 0.00 24 1010.2
20260504175508 72 360 7.0 13.0 0.00 0.00 0.00 23 1010.2
20260504174509 71 360 4.0 14.0 0.00 0.00 0.00 25 1010.2
20260504174008 71 360 5.0 14.0 0.00 0.00 0.00 26 1010.2
20260504173038 71 360 5.0 14.0 0.00 0.00 0.00 27 1010.0
20260504172508 70 360 3.0 16.0 0.00 0.00 0.00 29 1009.8
20260504172008 70 360 4.0 16.0 0.00 0.00 0.00 29 1009.8
20260504171508 69 200 2.0 13.0 0.00 0.00 0.00 31 1009.6
20260504171007 69 146 7.0 10.0 0.00 0.00 0.00 31 1009.7
20260504170538 69 360 10.0 11.0 0.00 0.00 0.00 31 1009.8
20260504151007 64 360 6.0 13.0 0.00 0.00 0.00 39 1009.6
20260504140507 62 360 5.0 8.0 0.00 0.00 0.00 39 1009.2
20260504130507 64 360 2.0 9.0 0.00 0.00 0.00 36 1008.7
20260504110507 67 76 5.0 8.0 0.00 0.00 0.00 32 1008.7
20260504100508 69 99 1.0 10.0 0.00 0.00 0.00 26 1008.7
20260504081507 70 94 2.0 6.0 0.00 0.00 0.00 21 1008.6
20260504081007 70 71 5.0 5.0 0.00 0.00 0.00 22 1008.5
20260504080507 70 111 1.0 3.0 0.00 0.00 0.00 22 1008.7
20260504050507 74 360 3.0 3.0 0.00 0.00 0.00 19 1007.7
20260504045507 75 360 1.0 3.0 0.00 0.00 0.00 19 1007.5
20260504045038 75 360 1.0 2.0 0.00 0.00 0.00 20 1007.8
20260504044537 75 360 0.0 2.0 0.00 0.00 0.00 20 1007.9
20260504044006 76 206 0.0 2.0 0.00 0.00 0.00 19 1007.9
20260504043507 76 206 0.0 2.0 0.00 0.00 0.00 19 1007.9
20260504043007 77 206 1.0 2.0 0.00 0.00 0.00 19 1007.8
20260504042506 77 206 0.0 3.0 0.00 0.00 0.00 18 1007.9
20260504042007 77 206 1.0 3.0 0.00 0.00 0.00 18 1007.8
20260504041536 78 206 0.0 0.0 0.00 0.00 0.00 17 1007.7
20260504041037 78 206 0.0 1.0 0.00 0.00 0.00 17 1007.6
20260504040537 79 213 0.0 1.0 0.00 0.00 0.00 17 1007.5
20260504035507 79 211 0.0 5.0 0.00 0.00 0.00 16 1007.4
20260504035007 80 210 1.0 5.0 0.00 0.00 0.00 16 1007.3
20260504034507 80 360 3.0 5.0 0.00 0.00 0.00 16 1007.2
20260504033537 81 360 3.0 5.0 0.00 0.00 0.00 15 1007.0
20260504033037 81 360 4.0 7.0 0.00 0.00 0.00 15 1006.9
20260504032507 81 360 4.0 7.0 0.00 0.00 0.00 15 1006.8
20260504032006 81 360 4.0 8.0 0.00 0.00 0.00 15 1006.8
20260504031537 81 360 3.0 11.0 0.00 0.00 0.00 14 1006.6
20260504031037 82 360 8.0 13.0 0.00 0.00 0.00 14 1006.5
20260504030037 82 360 7.0 17.0 0.00 0.00 0.00 13 1006.4
20260504025037 82 360 8.0 19.0 0.00 0.00 0.00 12 1005.6
20260504024536 82 360 4.0 19.0 0.00 0.00 0.00 12 1005.6
20260504024007 83 360 4.0 9.0 0.00 0.00 0.00 13 1005.5
20260504023006 83 360 5.0 13.0 0.00 0.00 0.00 13 1005.5
20260504022506 83 360 8.0 13.0 0.00 0.00 0.00 12 1005.6
20260504021537 83 360 7.0 14.0 0.00 0.00 0.00 12 1005.7
20260504021006 83 360 4.0 16.0 0.00 0.00 0.00 12 1005.6
20260504020037 83 360 15.0 18.0 0.00 0.00 0.00 12 1005.8
20260504015537 83 360 4.0 10.0 0.00 0.00 0.00 12 1005.1
20260504015006 83 360 2.0 11.0 0.00 0.00 0.00 12 1004.9
20260504014536 84 360 6.0 11.0 0.00 0.00 0.00 12 1005.1
20260504014036 84 360 1.0 12.0 0.00 0.00 0.00 12 1005.1
20260504013536 85 360 5.0 15.0 0.00 0.00 0.00 12 1005.2
20260504012507 85 360 3.0 19.0 0.00 0.00 0.00 11 1005.1
20260504012007 85 360 7.0 15.0 0.00 0.00 0.00 11 1005.2
20260504011537 85 360 8.0 14.0 0.00 0.00 0.00 11 1005.1
20260504010536 85 360 9.0 20.0 0.00 0.00 0.00 11 1005.1
20260504010006 85 360 5.0 15.0 0.00 0.00 0.00 10 1005.2
20260504005536 85 360 5.0 13.0 0.00 0.00 0.00 11 1005.1
20260504005036 85 360 7.0 13.0 0.00 0.00 0.00 11 1005.1
20260504004537 85 360 6.0 10.0 0.00 0.00 0.00 11 1005.0
20260504003506 85 162 0.0 10.0 0.00 0.00 0.00 12 1005.1
20260504003036 85 360 2.0 9.0 0.00 0.00 0.00 13 1005.2
20260504002507 85 225 3.0 9.0 0.00 0.00 0.00 13 1005.3
20260504002006 84 360 6.0 10.0 0.00 0.00 0.00 13 1005.2
20260504001506 84 360 5.0 14.0 0.00 0.00 0.00 13 1005.2
20260504001006 84 360 6.0 14.0 0.00 0.00 0.00 13 1005.3
20260504000507 85 360 7.0 12.0 0.00 0.00 0.00 12 1005.5
20260503235536 85 226 1.0 13.0 0.00 0.00 0.00 12 1005.8
20260503235036 86 218 6.0 13.0 0.00 0.00 0.00 11 1005.8